Theta_e
309 310 312 312 313 315 317 318 318 319 321 324 325 325 323 322 318 316 316 319 320 325 328 327 331 334 334 334 336 335 334 331 329 331 331 331 332 323 317 316 319 319 317 317 317 317 317 317 317 319 322 323 323 323 319 317 316 315 316 320 322 321 317 315 315 318 321 323 323 319 319 319 319 318
308 309 310 311 312 314 315 315 317 319 320 323 325 325 325 327 320 320 317 317 323 323 327 329 328 333 333 333 335 336 335 328 329 330 332 332 331 323 316 315 314 315 315 315 313 313 315 317 319 323 322 321 319 318 316 315 315 315 317 321 322 320 317 315 315 317 318 319 319 319 318 317 316 317
308 308 308 310 311 312 311 312 314 315 316 317 318 319 323 326 326 321 320 314 323 327 324 327 331 332 337 335 335 332 333 330 329 332 332 332 326 323 320 315 314 315 314 313 314 315 314 314 316 319 320 321 319 318 316 315 315 317 319 318 318 319 318 317 316 320 321 322 322 321 318 316 316 317
307 307 307 308 308 308 308 309 311 311 312 312 312 313 315 318 321 322 320 316 317 327 327 328 331 333 337 337 332 332 331 331 324 331 333 332 324 327 329 315 314 314 313 313 313 316 314 312 314 317 319 320 320 318 318 316 317 317 315 314 315 315 316 316 316 320 322 323 322 322 317 317 316 314
306 306 305 306 306 306 306 307 308 308 309 309 309 309 310 311 315 317 317 317 318 325 331 331 330 329 337 332 333 331 330 330 331 327 331 332 330 331 331 325 314 313 312 312 311 312 312 311 316 318 319 320 319 317 315 314 313 312 312 312 314 314 316 316 316 319 322 322 322 319 315 314 313 314
305 305 304 304 304 305 305 306 305 306 306 306 306 305 305 307 309 312 311 313 316 318 326 328 330 331 334 329 333 330 329 329 329 329 330 332 331 330 330 327 322 312 313 312 311 312 311 310 313 314 313 314 314 313 311 310 310 311 311 307 311 313 315 316 314 316 319 321 318 315 313 312 312 311
303 303 303 303 303 304 304 304 304 304 304 304 303 303 304 304 305 307 309 309 310 314 319 326 327 328 329 329 329 332 331 329 329 328 328 329 330 330 330 328 326 312 311 310 310 311 311 310 311 311 311 312 311 311 309 309 309 309 309 306 308 311 313 313 314 315 319 320 317 314 311 311 313 313
302 302 301 302 302 302 302 302 302 302 302 301 301 301 302 302 302 304 306 308 308 312 315 322 324 324 325 326 329 331 331 328 328 328 330 330 329 330 330 330 327 318 310 310 310 310 311 310 310 310 310 311 310 309 308 308 308 308 307 307 308 309 310 309 309 311 314 317 314 312 310 313 315 316
301 301 301 301 301 301 301 301 300 300 300 299 299 299 300 300 300 301 302 304 308 309 312 317 323 325 324 326 327 328 328 328 328 330 328 328 328 329 329 330 328 317 310 310 310 309 310 310 310 310 310 310 310 308 308 308 307 307 307 307 307 308 308 309 310 311 312 312 311 312 311 312 317 318
300 300 300 300 300 300 299 299 299 300 299 298 297 297 298 298 299 299 300 303 305 307 311 315 317 322 321 322 325 328 327 326 325 325 326 327 327 326 326 328 328 325 316 316 315 311 310 310 310 310 310 309 308 308 307 307 307 306 307 307 307 307 307 307 308 309 309 310 310 311 311 312 317 319
300 300 299 299 299 299 299 299 298 298 297 297 297 297 297 297 297 297 297 299 301 304 308 313 318 320 321 321 320 324 326 326 325 323 322 322 326 326 325 324 326 324 319 315 311 312 313 313 313 309 308 308 308 308 307 307 306 306 306 305 305 304 305 305 306 309 309 310 309 309 307 308 312 317
299 299 299 299 299 299 299 299 298 297 295 295 295 296 296 296 295 295 296 297 299 302 305 310 313 318 319 320 322 323 324 322 323 324 323 320 321 322 324 324 323 322 319 318 316 312 312 313 312 309 308 309 308 307 307 308 307 306 305 304 305 305 304 304 304 307 309 309 307 306 305 306 309 310
298 299 299 299 299 300 300 298 298 297 296 295 293 294 295 295 295 295 296 297 298 301 303 306 311 314 316 318 319 319 319 319 319 323 323 321 322 323 322 324 325 322 319 318 318 316 316 318 317 316 314 314 311 310 309 310 308 307 305 304 305 305 305 304 305 307 308 309 307 305 305 306 307 306
298 298 298 298 300 299 298 297 296 295 294 295 295 294 294 294 294 294 295 297 298 299 300 302 306 308 312 316 319 318 320 322 323 322 321 319 321 322 321 322 324 324 320 318 317 317 319 319 318 317 315 317 315 315 313 314 312 307 304 304 305 304 304 304 305 306 306 306 306 305 304 304 304 304
297 297 297 297 298 298 297 297 295 294 294 293 293 293 294 295 295 295 295 296 298 297 297 300 303 305 308 313 318 319 320 321 322 322 321 320 319 318 316 315 319 324 321 318 317 317 320 320 317 317 317 317 316 316 315 310 307 305 304 304 304 304 304 304 304 304 304 304 304 303 302 302 302 303
296 295 295 296 296 296 296 296 295 295 294 293 293 293 293 293 293 294 296 296 296 297 296 297 300 302 305 309 313 317 319 319 320 322 321 319 318 318 317 317 316 321 323 319 317 316 319 321 319 317 317 318 316 316 312 307 306 304 304 304 304 304 304 304 304 303 304 303 303 302 301 301 300 301
295 295 294 294 295 295 297 297 295 294 294 294 293 294 295 295 295 293 292 293 297 298 297 298 299 301 305 307 310 316 319 320 319 320 319 319 319 320 318 318 320 320 322 320 317 316 318 319 316 316 318 319 318 316 309 306 305 304 303 303 303 303 303 304 304 303 303 303 302 302 301 301 300 300
295 295 294 293 294 294 295 295 294 293 293 293 294 296 297 298 298 296 295 294 294 296 298 298 298 301 304 304 307 311 313 316 318 319 318 320 320 320 320 323 323 323 322 319 317 316 317 319 318 316 317 319 318 318 311 305 304 304 303 303 303 303 303 303 303 302 302 301 301 300 301 300 299 300
295 295 294 294 294 294 294 294 293 292 292 292 293 294 295 296 298 298 299 300 300 299 298 297 298 299 301 303 305 308 314 318 320 321 321 320 320 321 322 322 322 321 322 322 319 314 316 319 317 316 316 318 318 319 309 304 304 303 302 302 302 302 302 302 301 301 301 300 300 299 298 298 298 298
296 295 295 294 293 293 294 294 291 291 292 292 292 292 294 295 296 297 298 295 295 297 297 298 298 299 301 299 302 302 303 304 310 318 320 321 320 318 315 314 313 315 319 323 321 318 314 316 316 315 317 317 316 317 314 304 304 303 302 301 301 301 301 301 300 300 300 300 299 298 297 297 296 297
296 296 295 295 294 293 294 292 289 290 291 292 292 292 292 293 294 295 298 295 294 293 293 293 294 294 293 293 293 293 293 296 302 311 316 314 317 315 312 313 312 314 316 320 322 320 313 313 314 314 315 315 313 313 312 309 303 302 302 301 301 301 300 300 299 300 299 299 298 297 297 296 296 296
296 296 296 296 295 293 294 290 289 290 291 291 291 291 290 291 292 293 295 295 296 296 296 296 296 296 295 293 293 294 294 295 298 307 310 315 315 313 313 312 312 315 314 316 322 318 313 313 315 310 308 309 311 312 311 309 306 302 301 301 301 300 300 299 298 299 299 298 297 297 296 296 297 302
295 295 296 295 294 293 292 289 290 289 291 291 291 290 290 289 289 291 292 293 294 296 299 301 302 303 303 306 306 306 300 298 300 306 311 316 314 312 313 313 312 310 311 316 321 315 311 312 312 308 306 305 303 309 309 309 309 309 308 306 304 300 299 298 297 298 299 298 297 297 296 296 300 308
294 295 295 295 292 290 289 289 289 289 290 291 291 291 289 288 287 291 292 294 294 295 297 299 300 301 303 304 304 304 304 304 306 307 310 315 316 314 313 313 312 310 311 314 318 315 311 312 308 312 312 306 301 301 306 309 309 309 309 307 306 300 299 298 298 298 298 297 297 297 296 297 302 308
293 294 294 295 292 289 289 289 289 290 290 290 291 290 289 289 290 291 292 293 294 295 296 297 298 299 300 301 301 301 302 303 303 304 303 307 312 315 314 313 313 313 315 312 309 315 307 310 308 310 310 310 304 300 302 306 308 308 309 309 307 303 302 302 301 301 297 296 296 296 296 298 300 305
294 294 294 294 292 289 289 289 289 289 290 290 292 290 289 289 289 291 293 293 293 293 294 295 296 297 297 297 298 298 299 300 301 302 302 304 306 308 314 316 313 311 312 310 305 314 309 309 309 308 308 304 302 302 299 302 305 306 308 308 306 303 303 303 302 301 300 300 299 298 299 297 299 299
294 295 295 294 291 289 289 289 289 290 290 291 291 289 289 289 289 290 292 291 291 291 292 293 294 295 295 295 296 296 297 299 300 301 302 303 304 306 308 310 312 314 313 310 311 314 312 310 310 310 307 306 301 300 300 299 300 304 305 306 305 304 305 304 301 300 300 299 300 296 296 295 295 295
295 294 294 293 289 289 289 289 289 290 290 290 289 289 289 289 290 291 290 290 290 290 290 290 291 292 294 295 295 295 297 298 299 300 302 302 303 305 307 308 306 308 309 310 311 314 312 310 309 311 310 305 302 300 299 300 300 302 301 303 303 304 304 302 300 299 300 300 299 300 301 300 301 300
295 291 289 289 289 289 290 290 290 291 291 289 289 289 289 291 291 290 289 289 289 288 288 289 290 291 293 294 296 297 298 298 299 299 300 301 302 304 304 304 304 306 308 309 311 313 311 310 308 309 308 306 304 302 299 296 299 299 299 299 298 300 301 301 300 299 299 299 299 299 300 300 300 300
290 290 290 290 290 291 292 294 294 293 292 290 290 290 291 291 291 290 288 288 288 287 287 288 288 291 293 294 296 297 297 296 296 296 297 298 298 301 301 301 301 303 305 307 310 312 311 310 308 308 306 306 305 301 300 298 297 298 298 299 297 297 299 299 299 299 298 298 299 300 301 301 300 300
295 294 293 293 291 292 290 291 291 291 291 292 292 292 292 291 291 291 289 288 287 287 287 287 289 290 292 294 295 294 295 294 294 296 295 296 296 297 298 297 296 298 302 304 306 309 310 309 309 308 305 303 302 301 300 300 297 297 298 298 297 293 296 299 299 299 299 299 299 300 300 300 300 301
296 296 292 293 296 295 295 294 294 294 293 292 291 291 291 291 291 291 290 290 289 288 289 289 290 290 291 292 293 294 294 294 293 294 295 295 295 296 297 295 293 295 298 300 303 304 303 308 308 308 307 304 300 300 301 300 298 297 297 298 298 297 297 297 297 298 299 299 298 298 298 299 300 301
296 295 294 294 293 293 291 291 292 293 293 292 292 291 290 290 290 290 289 287 287 287 288 288 288 289 290 290 292 292 292 292 292 293 294 294 295 295 296 293 293 293 294 295 297 299 301 301 301 303 303 303 302 301 299 296 297 298 296 296 296 295 296 298 297 297 298 297 296 295 296 298 299 300
293 292 292 292 292 292 291 291 290 291 291 290 291 291 288 289 289 289 289 288 288 288 288 289 288 289 289 289 290 290 289 290 292 292 291 292 293 292 292 292 292 294 294 294 295 297 298 299 299 299 299 298 299 298 299 298 296 297 297 296 295 294 296 297 297 297 297 296 294 292 292 293 295 297
291 291 291 291 291 290 291 290 290 291 290 290 290 290 290 290 288 287 287 288 288 288 288 289 289 289 289 289 290 289 289 290 291 292 292 291 291 290 290 290 291 292 292 293 294 296 298 298 298 297 297 297 296 297 296 297 297 296 296 296 296 295 295 296 296 296 296 295 294 291 291 291 292 294
291 291 291 291 290 291 290 290 290 290 291 290 290 290 289 289 289 288 287 288 289 289 289 289 289 289 289 290 290 291 290 289 291 291 290 290 290 289 289 288 289 290 291 291 292 295 297 297 297 295 293 292 291 289 290 294 296 298 294 293 295 295 295 295 295 295 294 293 294 292 289 288 290 292
290 291 291 291 291 291 290 290 290 291 291 290 291 291 290 290 290 291 289 288 289 288 288 289 289 290 291 290 290 290 290 290 290 290 290 291 290 289 288 287 287 288 289 290 291 292 294 294 295 295 292 289 287 285 286 291 292 293 297 293 292 294 293 293 293 292 293 293 292 291 290 289 289 291
290 291 291 291 291 291 291 291 291 290 290 290 291 291 291 291 291 291 291 290 289 288 288 289 289 290 291 291 291 291 291 291 291 290 289 289 288 288 288 287 287 287 287 288 289 290 291 291 292 292 290 287 286 285 285 287 288 289 292 294 290 290 292 290 288 287 288 290 289 289 290 288 289 291
291 291 291 291 291 291 290 291 291 291 291 290 290 290 291 291 291 290 290 289 290 289 290 289 290 290 291 292 292 292 291 291 291 290 289 288 288 288 288 288 288 288 288 287 288 288 288 287 288 289 290 288 286 286 286 285 284 287 290 291 291 289 288 288 286 287 286 286 286 287 287 288 289 288
291 292 292 291 292 291 291 291 291 291 291 290 291 291 291 289 290 289 289 289 289 289 289 289 289 291 292 293 293 294 294 293 291 291 290 289 288 288 288 289 289 289 288 287 287 287 286 286 286 286 286 286 286 287 287 287 287 288 288 290 291 290 288 288 287 286 286 287 288 287 286 287 286 289
292 292 292 292 292 292 291 292 292 291 291 291 291 290 291 291 290 289 289 289 289 289 289 289 290 290 290 291 292 293 292 293 292 292 291 290 288 287 287 287 288 288 287 286 286 286 286 287 288 288 289 289 290 292 289 287 284 285 285 286 289 291 291 291 290 288 287 288 288 287 287 286 287 288
293 292 292 293 292 292 292 292 292 292 291 290 290 291 291 290 290 288 289 288 289 289 289 289 289 289 290 291 292 292 293 292 292 292 291 291 290 289 288 288 287 287 287 286 286 286 288 292 290 290 290 289 289 287 285 285 284 284 285 286 287 289 290 290 291 291 293 291 288 287 287 287 288 287
293 293 292 293 293 292 293 292 292 292 291 290 290 291 290 290 290 290 289 289 289 289 289 289 290 290 289 290 291 292 293 293 293 292 291 291 290 290 289 289 288 288 287 287 287 288 288 290 290 289 289 288 288 287 285 285 286 286 286 286 286 288 289 290 289 289 289 288 289 290 292 290 288 286
293 293 293 293 293 293 293 293 292 292 291 290 290 290 289 289 289 289 289 289 289 289 289 289 289 289 289 290 290 291 292 293 293 292 292 292 291 291 291 290 290 289 289 288 288 288 289 289 289 289 288 287 288 287 286 286 286 286 286 287 287 288 288 290 290 290 289 288 288 288 289 288 289 290
293 293 293 293 293 293 293 293 293 292 291 289 290 289 289 290 289 289 289 289 289 289 289 289 289 289 290 290 289 289 290 290 293 293 293 293 293 292 292 291 291 290 290 290 289 288 288 289 289 289 288 287 288 287 287 287 287 287 287 287 286 287 288 288 288 287 287 287 287 287 288 289 289 289
Wind_Speed
10 10 12 9 9 9 10 9 9 10 10 11 11 10 11 10 13 12 13 12 11 11 10 10 9 10 12 11 11 11 11 12 14 12 12 13 12 16 21 20 22 21 22 22 23 22 21 21 17 15 16 19 20 20 18 19 19 17 16 17 17 12 14 16 18 18 19 20 19 16 16 15 13 13
10 10 11 10 9 9 10 10 11 9 10 11 12 12 11 10 13 13 13 11 9 12 10 11 11 7 10 11 10 10 11 13 13 9 10 12 12 18 21 22 22 21 21 22 22 22 23 22 20 20 19 19 18 20 19 19 19 18 18 19 18 13 14 16 17 17 17 17 16 16 16 13 14 15
11 12 11 10 9 10 11 11 10 10 10 12 12 12 14 12 11 11 12 13 8 7 11 11 11 11 9 9 9 10 9 12 15 13 11 12 15 17 17 21 22 22 23 22 21 22 23 22 22 22 20 21 21 21 20 20 19 18 18 18 18 15 15 18 18 18 18 17 18 16 14 15 13 11
11 12 12 11 10 11 10 10 11 11 10 9 10 11 10 12 13 13 12 14 15 8 10 12 12 12 8 8 10 10 10 10 15 12 13 15 15 14 10 21 22 23 23 23 22 22 22 21 22 22 22 22 21 21 21 21 21 21 19 18 18 16 17 19 19 19 19 18 19 16 15 14 13 12
11 11 12 11 11 12 11 10 11 11 12 12 11 11 10 10 12 12 13 13 13 9 6 9 9 11 8 9 11 11 9 10 11 13 14 12 12 10 7 10 21 22 22 22 22 22 22 21 21 22 22 22 22 22 22 23 22 21 20 19 18 16 18 19 19 19 18 17 18 16 16 16 16 14
11 11 12 12 12 11 11 12 12 11 12 12 12 12 11 11 12 11 13 14 13 15 8 9 8 7 7 10 9 11 10 12 10 12 13 12 15 11 11 7 10 23 21 21 21 21 21 21 21 22 22 22 23 22 22 23 23 21 21 20 19 17 18 19 19 18 17 17 17 17 17 17 16 16
13 13 13 13 13 10 12 12 11 12 12 12 12 13 11 12 12 12 12 13 14 15 12 8 7 5 6 9 10 11 11 11 11 12 12 12 10 12 12 9 7 19 22 23 22 22 22 21 21 22 23 23 24 23 21 21 21 22 21 19 19 18 18 19 19 19 18 17 18 18 18 17 17 16
14 14 14 14 14 13 13 13 13 11 12 12 12 13 12 12 13 12 12 12 12 14 15 9 7 8 8 8 10 9 10 12 10 12 9 11 13 13 11 8 7 14 23 22 22 23 23 22 22 22 23 23 24 23 23 23 23 22 21 20 19 18 18 18 19 19 18 18 19 19 18 18 16 15
14 14 14 15 14 13 13 13 14 14 16 13 12 13 13 12 13 12 12 11 10 11 14 12 9 7 8 8 8 10 10 10 11 8 9 11 12 10 9 6 11 16 23 21 21 22 23 23 23 22 22 23 24 24 24 24 24 23 22 21 20 19 18 18 18 19 18 18 19 19 18 18 17 17
13 13 14 14 14 14 14 14 14 15 17 15 14 15 14 13 13 14 14 13 12 11 11 12 13 7 7 7 8 9 10 10 9 8 8 10 11 11 11 10 8 7 9 9 13 18 18 21 24 23 23 23 24 24 24 24 23 23 23 22 21 19 19 18 18 19 18 18 19 19 19 18 17 17
12 14 14 14 14 14 14 14 15 15 16 13 16 15 15 15 15 14 13 13 14 13 12 11 11 10 7 7 9 7 10 11 11 10 7 10 8 9 11 9 8 6 9 15 17 14 15 18 16 20 23 23 24 25 25 24 24 23 23 22 22 20 19 18 19 19 18 18 19 19 18 18 17 17
13 13 13 13 14 14 13 14 14 15 15 14 15 15 15 16 16 15 14 13 12 12 12 10 11 10 9 7 8 6 8 10 9 9 10 10 9 10 9 10 9 7 8 8 9 13 17 18 20 22 22 24 24 25 24 25 24 24 23 22 22 21 19 19 19 19 19 19 19 19 18 17 16 16
14 14 14 13 14 15 18 20 17 17 16 14 16 17 17 17 16 15 12 12 12 12 12 12 10 10 10 9 9 9 9 11 11 7 8 9 9 9 8 9 11 11 10 10 9 8 10 9 11 9 9 13 22 22 24 21 26 25 23 23 23 22 21 19 19 19 19 19 18 18 17 17 16 15
15 14 14 14 20 20 20 20 17 16 17 20 18 16 16 17 16 15 13 12 12 12 13 13 12 11 11 10 9 10 10 8 8 6 7 7 9 9 9 8 9 10 11 8 10 9 8 8 8 11 12 12 16 11 14 14 17 22 24 23 22 22 21 20 19 20 19 19 18 17 17 16 15 14
15 15 15 14 16 17 18 19 19 17 19 18 18 20 21 18 15 15 15 13 12 12 11 11 11 11 13 13 10 11 10 8 9 8 9 10 8 9 8 8 3 9 11 9 9 7 10 13 9 12 13 14 13 12 12 20 23 23 24 23 23 22 22 20 20 20 19 18 18 17 16 15 14 14
14 15 15 14 14 14 18 18 18 21 23 21 20 20 19 18 17 15 13 14 14 13 13 14 14 13 12 13 13 10 9 9 9 10 11 10 10 9 8 10 10 6 13 11 8 10 10 12 12 10 13 13 13 15 19 24 24 24 24 24 24 23 22 22 20 20 19 18 17 16 16 15 15 14
15 14 14 15 14 15 23 19 19 20 21 22 23 20 19 17 15 14 15 16 15 14 15 14 16 13 12 12 12 12 11 9 10 10 12 12 10 12 12 13 12 10 14 12 10 10 10 12 12 11 13 13 11 13 19 23 24 24 24 24 23 23 22 22 20 19 19 18 17 16 16 16 15 15
15 15 15 15 16 17 18 17 20 21 20 20 19 18 17 16 18 16 16 14 15 14 13 14 16 17 14 13 13 15 13 13 12 10 12 12 10 10 13 13 12 10 15 16 12 8 11 11 9 9 11 12 12 12 19 24 24 23 24 23 23 23 22 22 21 20 19 18 17 17 17 16 15 15
14 15 14 16 16 17 17 17 21 21 21 20 17 17 17 18 17 17 16 15 14 14 13 14 16 18 17 16 14 14 14 13 12 13 12 12 12 12 10 7 4 7 12 14 13 9 7 8 9 11 12 11 12 11 16 24 23 24 23 23 23 23 22 21 21 20 19 18 18 18 17 16 16 15
13 14 15 16 17 18 18 22 24 23 20 19 18 18 18 18 17 16 15 16 16 16 16 15 16 17 18 18 17 15 13 14 14 12 9 8 11 12 9 10 6 10 9 14 11 6 11 12 13 13 10 11 11 13 10 20 24 23 22 22 22 22 21 21 20 20 20 19 19 18 18 17 16 15
14 14 16 16 17 19 19 23 23 23 23 18 18 18 18 17 16 16 16 17 19 18 19 21 23 24 24 23 23 24 25 18 13 10 11 10 8 7 8 8 8 8 9 10 13 10 7 10 12 9 9 12 11 10 12 11 17 21 21 21 21 20 20 20 20 20 20 20 19 18 18 17 16 16
14 16 21 19 18 19 20 23 23 23 22 19 17 17 18 18 18 17 18 16 16 19 18 17 17 17 15 17 18 19 19 18 12 8 14 9 7 9 10 9 7 6 7 10 13 10 10 11 10 9 6 6 5 10 11 13 12 17 16 20 19 18 19 19 19 19 19 19 19 18 19 18 18 13
14 15 15 19 18 19 21 23 22 23 22 18 16 17 17 17 18 17 19 17 18 18 17 15 15 13 12 10 8 8 10 9 9 9 12 7 8 11 10 9 7 7 7 10 14 9 6 10 7 10 7 5 1 3 10 12 10 9 10 11 12 17 18 19 19 20 20 19 20 20 21 22 19 11
15 15 16 17 19 23 23 22 23 22 21 19 17 15 15 16 18 18 16 17 17 16 15 15 14 13 12 10 9 8 7 7 7 7 7 8 8 10 10 11 11 11 8 10 15 11 7 12 11 12 13 12 7 4 7 9 10 11 11 10 10 16 19 19 16 21 20 19 21 21 22 23 18 12
15 15 15 16 19 23 23 23 23 22 22 20 16 17 15 16 19 19 13 17 21 15 15 13 12 12 12 10 9 8 7 6 6 5 5 5 6 7 10 10 10 10 6 9 16 10 7 10 10 11 6 2 7 7 5 8 9 11 12 12 13 11 9 8 8 10 15 19 20 21 22 22 17 14
15 15 15 14 18 23 23 22 22 22 21 21 16 16 21 22 22 18 13 13 14 13 13 12 12 11 13 14 10 9 8 8 7 8 5 4 4 6 7 7 10 11 8 10 20 13 10 10 14 11 7 7 7 10 10 8 8 8 10 11 9 11 11 10 9 10 10 9 11 15 16 17 10 11
12 12 13 14 20 21 21 21 21 20 21 19 17 23 22 21 22 17 10 13 11 12 12 12 12 13 13 12 11 9 9 9 9 8 8 6 4 4 5 6 5 5 0 9 16 13 11 10 13 17 14 10 12 8 11 11 9 10 11 10 9 10 10 11 11 10 10 9 9 15 14 8 9 11
10 12 13 14 19 18 19 19 19 18 19 17 22 21 22 21 18 12 11 12 10 12 12 12 12 13 13 13 10 11 9 8 9 7 7 6 5 4 3 3 4 4 5 10 12 12 11 10 12 11 15 15 13 15 12 5 9 12 11 9 9 10 10 10 11 10 10 10 11 12 11 10 8 10
9 11 15 16 16 16 16 17 17 16 18 21 20 22 21 21 14 13 12 12 12 12 13 12 11 10 11 11 11 12 10 9 10 10 9 7 6 6 5 5 5 5 2 6 11 10 8 7 10 10 7 9 13 12 14 12 13 11 12 15 10 9 9 10 11 11 11 11 12 12 11 11 10 9
12 12 14 14 15 15 15 14 13 13 14 18 18 19 21 16 12 12 14 14 12 12 12 12 13 11 9 10 9 10 10 12 10 10 8 8 10 9 8 7 8 7 7 4 5 8 7 7 9 10 9 7 6 11 12 16 15 15 13 12 11 10 8 10 11 10 12 12 12 11 10 10 10 10
11 12 12 12 12 11 13 13 11 13 15 15 16 13 13 13 13 13 12 12 11 11 12 11 11 12 12 10 12 13 14 12 12 12 11 11 10 8 6 8 8 8 7 6 4 2 3 5 8 11 11 8 7 8 10 13 15 14 12 12 15 13 9 10 10 12 13 11 10 10 10 9 9 8
11 11 11 11 12 12 13 14 14 14 13 13 13 12 12 14 13 15 17 15 12 12 10 10 11 13 13 13 16 15 15 14 12 13 12 11 10 9 8 8 8 7 7 7 7 6 5 3 4 4 7 12 13 9 7 12 15 14 13 11 8 9 13 14 13 11 13 15 13 11 9 8 9 9
10 9 10 11 12 13 13 13 14 14 14 13 13 14 13 13 14 13 13 15 14 11 11 11 11 11 12 13 14 13 13 11 12 11 10 12 10 9 9 11 10 10 9 8 7 8 7 9 9 9 9 8 6 10 15 11 8 12 14 12 12 12 9 9 13 15 12 12 13 12 11 9 8 8
8 9 9 10 12 12 16 14 14 14 14 13 12 12 14 13 14 14 13 12 12 12 12 11 11 12 12 12 13 12 12 11 12 13 13 11 10 11 10 11 10 9 9 9 9 7 7 9 11 11 12 12 11 10 6 9 15 12 12 12 14 13 12 13 12 14 13 15 16 14 13 11 9 9
9 9 10 10 10 11 14 12 13 12 13 13 12 12 10 10 12 12 12 12 11 11 12 12 12 11 11 11 12 14 12 12 14 14 13 12 12 11 11 9 10 10 10 9 10 9 6 7 10 11 10 9 11 11 19 12 11 14 11 11 12 16 15 13 13 13 14 12 11 13 12 12 10 8
9 9 10 11 13 14 15 14 12 12 12 12 12 11 11 12 11 9 10 12 12 11 12 10 11 11 12 11 10 10 11 12 14 14 13 13 12 12 12 10 10 10 11 11 10 8 7 7 5 9 10 8 9 9 6 19 16 7 16 12 11 12 12 13 14 14 15 13 12 13 12 11 11 9
11 11 12 13 13 14 13 12 12 13 13 13 12 12 11 11 11 11 12 11 12 11 12 11 10 9 9 9 9 11 13 14 14 14 14 13 12 13 12 10 11 11 12 11 9 9 8 8 8 7 9 9 11 10 8 4 18 21 7 16 11 11 12 13 13 13 10 11 11 10 11 10 10 9
11 12 12 13 13 13 13 13 11 12 13 14 13 12 13 12 12 13 13 11 11 11 11 11 11 11 12 7 9 14 14 14 14 14 14 14 14 14 13 12 12 14 12 12 11 10 10 10 9 7 9 12 11 10 11 8 8 13 20 9 17 9 11 14 13 12 13 11 12 10 10 11 10 9
12 12 12 13 13 13 14 14 14 14 14 13 13 14 13 13 12 12 11 11 12 9 9 11 11 10 11 12 13 13 15 15 15 15 14 14 14 14 14 14 14 12 13 14 16 14 14 13 12 9 7 10 10 8 11 11 13 9 17 20 13 15 8 13 14 15 13 12 11 12 12 11 13 16
10 12 12 12 13 13 14 14 15 13 13 13 13 13 13 12 12 11 10 11 11 10 9 9 11 12 12 12 13 15 15 17 15 14 14 13 12 12 13 13 14 12 12 12 13 14 15 13 10 11 14 14 13 11 12 13 11 11 13 19 22 14 11 13 11 13 12 12 13 11 10 9 8 7
9 10 11 12 13 13 14 14 14 13 13 13 12 12 12 12 12 11 10 12 10 11 11 11 10 10 11 11 11 14 16 16 14 13 14 13 10 10 13 12 13 13 13 13 13 13 13 11 11 13 13 10 10 12 15 15 14 11 13 12 17 21 18 14 11 11 10 10 10 10 9 8 9 7
8 10 11 11 12 13 13 14 13 12 12 12 11 11 12 10 10 14 11 13 11 11 12 13 12 12 12 11 11 12 15 15 14 15 13 14 13 13 13 12 12 11 12 13 12 11 10 10 11 11 9 8 9 14 13 11 13 13 11 11 11 16 20 20 18 15 10 8 8 9 9 7 7 8
8 8 10 10 10 12 12 12 13 11 11 11 10 10 9 10 10 11 11 12 11 12 12 13 12 12 11 11 11 10 11 14 13 12 12 13 12 14 14 14 12 10 11 10 10 10 10 10 10 10 10 11 11 12 13 10 11 10 11 11 10 9 11 16 18 19 18 18 14 7 4 5 7 7
8 8 9 9 10 11 11 10 10 10 11 10 8 8 9 9 10 10 10 10 11 11 11 12 12 12 11 10 10 10 9 10 10 10 10 10 9 9 9 11 10 11 11 11 11 11 10 10 10 8 10 9 9 10 13 13 11 9 10 9 9 10 10 9 9 12 14 17 17 13 12 9 6 5
8 8 8 8 8 8 8 8 8 9 9 8 7 8 8 9 9 10 10 9 10 10 11 11 12 11 11 10 10 10 9 10 10 9 9 9 8 8 9 9 10 10 12 11 11 11 10 8 9 9 12 11 9 11 10 10 10 9 10 11 10 9 8 6 6 7 6 5 13 14 8 7 9 13
Wind_Direction
335 335 334 328 320 320 323 316 311 308 302 299 292 288 285 289 288 290 286 283 285 280 259 265 252 233 241 238 236 224 218 215 208 202 199 199 207 202 204 200 206 202 198 198 198 195 193 196 188 190 187 186 177 174 172 171 174 181 185 189 194 191 180 172 174 180 178 177 172 167 168 174 169 148
338 337 334 330 324 327 328 327 319 313 310 305 306 303 288 282 287 285 285 287 276 282 277 266 269 251 232 241 227 221 220 208 199 201 192 201 205 200 200 201 201 199 198 198 196 195 194 195 189 192 186 184 180 175 171 172 175 181 188 188 190 185 174 166 173 180 183 181 168 168 172 158 150 149
344 340 336 335 336 341 332 327 330 330 331 334 334 326 324 312 293 288 285 283 265 256 281 280 270 264 239 227 224 227 218 211 201 205 203 203 206 200 200 202 200 198 197 196 194 194 194 192 188 194 191 187 184 176 173 174 177 181 189 187 187 182 174 169 176 187 189 179 170 172 161 156 153 146
347 344 342 341 341 340 333 332 334 334 333 332 328 329 329 325 320 308 291 281 282 267 270 277 274 265 237 211 219 221 220 213 203 211 211 207 201 202 201 202 199 199 194 193 192 193 193 191 189 189 190 187 184 177 176 175 178 180 186 185 186 178 176 175 179 189 188 177 173 170 166 161 158 154
347 344 340 340 342 340 334 337 336 335 335 336 334 334 334 327 327 324 312 293 285 281 246 259 255 251 222 229 214 219 213 216 211 214 218 203 200 198 185 189 197 197 196 194 191 190 190 191 191 189 189 185 182 178 177 175 176 179 184 184 184 177 178 177 179 186 185 177 175 170 170 169 167 163
348 343 341 340 343 341 337 339 340 338 337 338 335 336 334 327 326 329 327 317 303 293 285 271 262 258 223 242 210 215 210 217 210 213 217 214 210 200 199 171 189 196 197 195 190 189 190 190 191 188 186 182 180 180 178 176 176 179 182 184 182 179 179 179 178 183 185 179 175 171 171 171 169 168
349 347 345 344 343 340 339 343 342 340 340 337 333 330 330 325 323 323 323 322 314 307 295 278 264 237 226 226 231 214 220 218 211 212 214 209 208 208 201 191 175 190 195 192 191 190 189 189 191 187 185 182 181 179 176 175 176 179 182 182 182 180 180 181 180 182 185 181 174 171 171 171 170 170
350 348 346 346 345 342 341 343 344 343 341 338 334 330 327 325 322 320 320 316 311 310 303 289 266 256 240 239 238 235 223 222 214 218 212 209 211 207 198 185 174 190 195 192 189 190 189 188 190 188 185 183 179 177 175 176 178 179 182 182 183 183 182 182 183 183 186 182 175 173 173 172 172 172
351 348 346 345 345 344 341 342 343 341 340 338 334 331 328 327 323 320 317 309 306 306 304 300 282 260 248 245 240 234 230 220 221 210 206 201 205 198 188 178 192 183 191 193 190 192 189 188 189 188 186 183 179 176 177 177 178 178 180 183 184 185 184 183 185 185 186 181 175 174 174 175 175 177
353 350 347 345 346 344 343 342 341 340 338 336 333 331 329 326 323 320 315 312 312 305 299 302 295 264 245 251 241 234 226 221 216 206 201 203 208 205 196 192 186 164 172 174 191 194 191 188 188 187 187 183 180 177 177 179 179 178 179 183 185 187 186 184 185 185 183 179 176 174 175 176 178 179
350 352 351 347 346 343 342 342 341 339 338 335 331 330 327 325 324 318 314 315 311 307 302 298 292 280 241 230 250 239 233 224 217 205 198 208 202 203 196 187 184 155 178 194 182 176 185 193 191 184 187 185 181 178 178 179 178 179 178 182 185 187 187 184 185 186 181 179 176 175 174 176 178 178
352 349 349 348 345 342 341 341 339 340 337 333 328 328 326 324 322 319 316 314 309 306 304 298 303 289 264 238 238 244 237 234 226 207 196 204 197 195 195 195 185 167 165 164 175 189 190 190 188 186 186 185 183 181 180 180 180 178 178 182 185 186 186 184 185 186 182 179 177 175 174 176 177 177
353 352 349 346 344 340 340 338 336 336 334 332 329 325 324 320 318 315 310 310 308 307 305 300 296 296 280 248 233 230 228 227 229 209 211 214 205 195 192 201 196 180 173 175 166 173 177 172 182 180 180 186 184 183 183 182 181 179 178 182 185 185 187 186 185 185 183 179 178 176 175 176 176 178
355 351 347 341 340 339 339 339 337 334 327 327 323 317 317 316 313 309 306 306 309 308 305 302 303 300 293 277 242 232 232 230 226 214 202 212 200 194 202 195 196 183 180 162 171 177 172 169 180 175 188 185 185 178 183 183 183 180 177 181 184 185 187 186 185 185 184 181 178 175 175 175 174 173
353 350 348 343 341 341 342 340 337 332 329 324 316 309 304 300 297 304 306 303 306 307 301 299 296 293 292 293 279 245 233 218 220 215 206 210 204 201 183 191 142 182 172 163 168 168 178 176 175 181 184 185 187 182 181 183 180 178 178 179 183 185 186 186 185 185 185 182 176 173 172 170 168 167
353 350 347 345 343 342 342 341 339 336 330 325 318 310 302 295 284 269 272 294 302 299 300 298 292 290 288 292 295 282 253 234 223 223 215 212 209 205 200 197 196 168 173 173 174 183 176 184 178 180 186 180 180 189 185 179 179 177 178 179 182 185 185 185 185 183 182 180 174 170 167 166 166 164
354 352 348 346 344 343 343 343 342 337 331 327 322 315 309 302 301 298 274 254 261 286 288 289 288 284 288 286 283 288 282 255 230 222 223 216 209 209 210 207 201 157 177 176 182 177 169 178 181 183 182 180 178 184 182 180 178 176 177 179 182 184 185 184 182 180 178 176 170 166 164 164 166 165
357 354 352 347 345 345 344 344 344 338 334 329 325 323 322 320 317 309 299 285 266 261 276 286 287 286 284 281 285 287 293 281 247 228 230 223 211 202 208 201 196 170 173 187 176 182 174 178 170 180 177 179 170 179 181 178 177 175 177 180 181 183 184 182 179 177 173 170 165 164 164 164 165 165
360 357 354 352 350 347 345 347 343 338 335 329 324 321 321 321 320 316 315 315 313 306 294 286 282 281 279 274 272 277 279 276 262 242 232 222 221 218 213 213 178 156 186 181 179 193 156 167 170 186 175 172 172 177 173 177 175 175 177 180 182 182 182 180 176 173 169 164 163 163 163 163 163 161
2 359 357 355 353 349 346 347 339 336 334 333 329 326 323 323 319 318 315 307 298 291 290 283 276 274 271 266 269 273 274 280 286 279 256 245 223 212 195 189 167 185 182 185 181 167 176 180 183 183 175 169 165 171 161 176 173 174 177 180 181 182 179 177 173 170 167 164 164 163 162 161 157 156
2 360 356 355 354 351 349 344 336 335 335 338 334 329 327 324 322 322 325 318 308 296 285 279 275 268 263 259 258 258 257 253 256 271 253 227 212 215 189 195 176 192 169 191 189 178 156 178 183 172 161 173 163 158 162 163 172 173 176 179 180 180 177 172 171 169 166 165 163 161 159 153 149 138
1 358 357 355 355 352 348 340 337 338 341 343 337 335 332 329 328 328 329 324 319 311 302 295 298 296 279 261 255 253 253 255 252 234 244 230 189 218 206 197 186 168 180 191 182 188 185 164 175 150 104 135 152 149 148 157 164 172 173 178 176 176 173 170 169 167 166 164 161 158 151 145 140 146
1 359 357 356 353 348 342 337 340 340 345 344 340 339 333 331 330 328 324 319 322 328 330 331 331 329 333 338 337 331 318 293 257 239 252 245 197 213 212 207 176 192 200 190 179 182 133 157 155 142 133 143 7 154 145 151 152 154 163 171 175 170 168 171 168 168 166 163 160 155 151 151 155 158
3 1 359 359 356 344 340 340 340 341 342 346 343 341 338 333 330 325 319 324 325 324 330 329 332 331 333 335 344 340 346 356 350 317 269 259 219 213 217 202 191 201 185 182 183 179 158 166 162 179 170 154 168 185 140 145 157 161 163 161 164 174 171 166 167 166 162 161 158 156 157 161 167 156
4 3 2 0 349 342 337 338 340 341 343 343 347 347 338 332 323 326 327 331 329 331 334 333 335 344 346 346 348 350 349 346 342 328 325 327 302 246 225 213 209 219 193 177 177 166 160 171 163 173 183 150 115 131 152 135 153 157 164 170 171 158 148 155 155 158 157 155 156 158 163 170 174 161
8 2 1 355 343 336 335 335 338 341 345 343 351 342 336 334 339 340 332 333 336 336 338 340 345 348 355 356 352 351 350 347 333 331 331 326 310 308 290 253 220 210 196 170 175 179 148 176 172 169 164 133 145 142 140 154 156 153 155 162 151 149 152 146 146 147 151 151 153 163 168 174 167 154
355 353 349 345 337 333 333 336 337 341 346 351 347 339 341 341 343 341 337 339 334 340 340 343 350 351 352 349 347 348 354 343 338 325 341 334 330 310 300 298 321 287 26 163 184 178 171 173 174 176 174 158 141 146 152 146 156 154 151 156 145 152 151 149 149 145 146 145 145 145 143 120 90 87
351 351 349 335 326 328 334 337 340 342 353 350 345 344 344 346 347 343 340 347 341 338 341 347 349 352 351 349 351 352 346 340 337 325 343 341 340 349 343 348 354 344 151 173 185 189 183 172 179 186 167 160 151 158 157 111 132 147 140 122 128 143 146 138 137 134 138 136 135 146 152 149 133 112
349 332 326 325 329 330 337 339 347 354 355 349 348 349 349 354 353 348 346 345 341 342 347 347 344 344 348 346 348 354 349 352 0 6 358 350 359 15 33 38 37 18 337 187 188 191 178 168 174 168 164 170 163 157 151 152 143 141 138 131 136 140 134 138 137 134 141 139 145 149 155 150 146 139
325 336 332 331 335 345 347 350 356 354 351 344 349 354 359 0 353 347 350 349 347 349 342 344 345 342 335 343 338 350 5 14 10 3 358 9 18 17 29 34 25 15 11 346 216 193 175 165 164 163 157 162 158 155 144 135 144 144 145 143 126 109 132 141 142 139 137 140 140 144 143 144 139 141
354 346 341 334 322 333 328 339 341 355 353 352 356 355 360 357 357 353 351 347 346 346 342 339 343 343 341 338 359 12 16 18 13 12 12 18 19 9 10 49 28 12 6 12 17 330 170 158 164 162 156 138 126 147 149 138 137 145 145 141 146 146 146 135 137 141 141 131 121 127 130 119 123 133
347 346 341 347 358 357 1 4 8 8 5 360 355 354 358 358 354 356 350 353 354 350 344 346 347 352 350 2 9 14 18 18 15 11 20 20 19 14 16 41 25 12 10 13 21 23 56 77 132 149 150 154 145 140 137 145 144 143 140 142 123 120 140 143 137 133 132 135 135 131 111 108 128 137
349 349 356 1 1 5 7 5 4 2 1 357 354 352 354 357 356 358 358 355 352 345 346 350 352 352 353 358 5 8 15 18 16 7 15 20 17 18 33 42 36 30 29 18 13 36 59 66 62 70 66 44 67 130 138 126 131 139 139 132 129 126 125 124 135 137 129 114 120 119 116 113 110 107
355 358 2 4 4 4 13 5 3 358 360 357 355 357 356 357 359 356 356 355 350 354 356 355 358 358 357 2 5 9 9 12 17 17 19 18 17 29 27 32 30 25 31 34 28 30 64 88 88 80 76 71 62 42 17 137 133 136 128 133 129 127 126 128 126 133 134 132 126 117 111 107 103 106
10 6 7 6 5 6 10 6 1 356 357 356 354 349 339 342 354 354 356 352 351 354 356 358 0 360 4 4 4 9 11 15 20 22 22 26 28 30 23 27 24 23 25 27 30 28 39 84 105 96 87 90 73 43 33 25 137 122 123 120 131 128 133 132 129 120 114 110 105 108 110 106 106 103
13 7 8 8 9 9 10 7 360 358 358 356 355 351 349 352 352 350 358 350 355 357 358 352 1 0 4 2 5 8 13 18 21 21 22 26 29 32 34 31 26 27 30 29 25 22 36 42 50 104 109 99 93 85 40 24 30 123 125 123 119 120 119 123 121 123 123 120 117 117 114 119 117 117
16 14 14 12 10 10 9 6 1 357 360 359 357 356 352 352 348 343 345 352 5 2 1 359 2 0 0 4 9 18 22 23 24 22 24 23 30 33 37 34 31 28 34 27 26 25 28 46 47 69 97 93 94 85 64 29 33 20 113 115 108 109 117 114 111 103 97 108 109 108 118 116 115 114
18 15 10 11 9 9 6 5 1 360 1 359 0 356 355 355 356 352 348 347 351 360 5 7 3 4 5 354 17 25 26 26 28 28 23 21 26 31 31 37 36 37 41 34 31 31 34 40 44 62 97 101 101 90 86 45 45 14 7 91 109 107 111 113 105 105 95 86 93 91 97 103 107 106
18 16 12 10 9 8 6 5 5 2 360 359 2 0 357 359 359 355 354 349 345 342 347 0 357 354 1 10 27 31 31 27 28 28 26 23 22 24 28 36 43 38 44 44 42 40 42 42 45 40 56 91 95 98 99 96 64 56 34 25 103 108 93 104 98 93 97 94 88 83 74 80 88 95
8 10 10 8 8 7 7 5 5 3 0 0 3 0 360 3 6 0 358 354 352 347 355 359 359 1 9 7 20 32 36 35 33 33 32 28 24 25 28 32 38 39 46 42 41 40 43 40 35 56 73 76 87 89 94 83 83 63 62 45 43 75 103 107 97 107 99 104 109 105 107 105 105 115
359 6 10 8 7 7 6 5 3 2 1 1 3 359 359 2 5 359 0 2 354 354 358 0 356 360 4 7 13 28 35 37 38 36 35 35 27 28 25 27 36 32 44 43 41 43 45 46 52 61 76 93 99 97 81 78 68 59 57 51 55 63 67 76 98 106 101 110 108 106 109 114 119 120
355 2 7 6 5 5 6 4 2 0 359 2 3 1 359 359 3 353 358 2 357 356 2 4 6 8 9 11 14 24 36 36 37 40 38 38 38 33 29 34 33 26 38 44 40 43 43 48 51 51 55 64 78 83 77 81 86 80 71 69 65 65 71 72 69 69 83 115 123 113 104 102 106 109
350 355 359 2 0 3 4 3 2 0 359 1 1 360 360 2 3 4 6 3 2 5 4 4 5 8 9 9 13 18 28 37 37 39 40 44 43 45 41 37 31 32 39 43 44 46 47 44 47 54 56 62 62 75 82 78 81 81 83 82 77 80 73 67 66 63 54 45 38 44 66 123 137 137
350 348 355 356 0 1 2 2 359 359 0 360 359 360 2 3 5 6 7 3 3 1 1 5 3 4 5 9 12 16 20 24 32 34 40 42 42 38 38 39 36 40 45 47 49 48 46 48 47 45 61 52 66 73 81 84 77 78 85 83 88 89 87 91 78 62 50 37 22 20 32 33 35 98
350 349 350 351 351 359 2 1 357 358 0 358 359 0 0 4 3 4 6 3 1 353 359 5 3 4 5 7 16 14 11 21 27 35 39 42 42 44 42 41 43 42 49 51 56 53 50 49 45 48 62 64 63 76 78 79 87 89 86 89 88 91 98 95 81 73 55 46 14 13 38 46 98 97